Simultaneous Nadir Overpasses (SNOs) Predictions

Prediction of SNOs near equator between AQUA and NPP Satellite Orbit:

Table of predicted SNOs near equator for the next 14.0 days since TLE Epoch: 10/17/2014
Index Date (AQUA) Time (AQUA) AQUA Lat,Lon Date (NPP) Time (NPP) NPP Lat,Lon Distance(km) Time Diff (sec)
1 10/17/2014 20:08:59 29.96,-103.10 10/17/2014 20:01:41 30.17,-102.09 99.69 438
2 10/17/2014 20:58:22 -29.98, 64.55 10/17/2014 20:52:21 -30.11, 65.26 69.13 361
3 10/17/2014 21:47:52 29.96,-127.82 10/17/2014 21:43:09 30.06,-127.43 38.69 283
4 10/17/2014 22:37:15 -29.98, 39.83 10/17/2014 22:33:49 -30.01, 39.91 8.14 206
5 10/17/2014 23:21:27 10.78,-148.03 10/17/2014 23:19:10 10.78,-148.04 1.05 137
6 10/18/2014 00:02:23 19.79, 26.26 10/18/2014 00:01:10 19.79, 26.26 0.19 73
7 10/18/2014 00:49:04 -29.99,-163.62 10/18/2014 00:49:04 -30.04,-163.80 18.36 0
8 10/18/2014 01:38:28 29.92, 4.02 10/18/2014 01:39:45 30.03, 3.53 48.93 77
9 10/18/2014 02:27:58 -29.94, 171.65 10/18/2014 02:30:33 -30.08, 170.84 79.60 155
10 10/20/2014 12:25:28 29.95, 12.79 10/20/2014 12:18:30 30.12, 13.71 91.05 418
11 10/20/2014 13:14:51 -29.97,-179.56 10/20/2014 13:09:11 -30.12,-178.96 60.46 340
12 10/20/2014 14:04:21 29.94, -11.93 10/20/2014 13:59:58 30.02, -11.63 29.89 263
13 10/20/2014 14:53:40 -29.72, 155.78 10/20/2014 14:50:34 -29.72, 155.78 0.45 186
14 10/20/2014 15:35:12 0.86, -30.03 10/20/2014 15:33:11 0.86, -30.02 0.69 121
15 10/20/2014 16:17:16 25.59, 143.52 10/20/2014 16:16:21 25.59, 143.50 2.11 55
16 10/20/2014 17:05:35 -29.88, -47.77 10/20/2014 17:05:56 -29.91, -48.05 27.39 21
17 10/20/2014 17:54:57 29.93, 119.90 10/20/2014 17:56:35 30.02, 119.31 57.73 98
18 10/20/2014 18:44:28 -29.89, -72.49 10/20/2014 18:47:23 -30.08, -73.38 88.38 175
19 10/23/2014 04:41:57 29.95, 128.67 10/23/2014 04:35:20 30.13, 129.49 82.20 397
20 10/23/2014 05:31:20 -29.97, -63.68 10/23/2014 05:26:00 -30.07, -63.16 51.60 320
21 10/23/2014 06:20:50 29.95, 103.95 10/23/2014 06:16:47 29.97, 104.16 21.21 243
22 10/23/2014 07:07:52 -21.50, -86.31 10/23/2014 07:05:03 -21.50, -86.30 0.80 169
23 10/23/2014 07:49:21 -7.59, 87.66 10/23/2014 07:47:37 -7.60, 87.66 0.29 104
24 10/23/2014 08:33:07 27.87,-100.03 10/23/2014 08:32:32 27.86,-100.11 8.78 35
25 10/23/2014 09:22:03 -29.94, 68.13 10/23/2014 09:22:44 -30.02, 67.77 35.95 41
26 10/23/2014 10:11:26 29.92,-124.22 10/23/2014 10:13:24 30.06,-124.89 66.48 118
27 10/23/2014 11:00:57 -29.88, 43.39 10/23/2014 11:04:13 -30.06, 42.41 97.26 196
28 10/25/2014 20:58:26 29.98,-115.46 10/25/2014 20:52:10 30.15,-114.72 73.28 376
29 10/25/2014 21:47:49 -29.99, 52.19 10/25/2014 21:42:50 -30.08, 52.62 42.64 299
30 10/25/2014 22:37:18 29.97,-140.18 10/25/2014 22:33:36 29.99,-140.05 12.16 222
31 10/25/2014 23:22:26 -14.65, 31.14 10/25/2014 23:19:55 -14.65, 31.13 0.92 151
32 10/26/2014 00:03:21 -16.50,-154.50 10/26/2014 00:01:54 -16.50,-154.50 0.73 87
33 10/26/2014 00:49:15 29.05, 16.16 10/26/2014 00:49:00 29.07, 16.00 15.53 15
34 10/26/2014 01:38:31 -29.92,-176.00 10/26/2014 01:39:33 -30.00,-176.45 44.90 62
35 10/26/2014 02:27:54 29.90, -8.34 10/26/2014 02:30:13 30.05, -9.11 75.45 139
36 10/28/2014 12:25:23 -29.97,-167.20 10/28/2014 12:18:11 -30.20,-166.25 94.83 432
37 10/28/2014 13:14:53 29.96, 0.43 10/28/2014 13:08:58 30.11, 1.07 64.33 355
38 10/28/2014 14:04:16 -29.97, 168.08 10/28/2014 13:59:38 -30.04, 168.42 33.67 278
39 10/28/2014 14:53:46 29.96, -24.29 10/28/2014 14:50:25 29.95, -24.26 3.34 201
40 10/28/2014 15:36:19 -5.27, 149.06 10/28/2014 15:34:05 -5.28, 149.06 0.13 134
41 10/28/2014 16:17:49 -23.75, -36.94 10/28/2014 16:16:40 -23.75, -36.94 0.28 69
42 10/28/2014 17:05:29 29.91, 132.26 10/28/2014 17:05:34 29.99, 132.04 23.46 5
43 10/28/2014 17:54:59 -29.94, -60.11 10/28/2014 17:56:22 -30.04, -60.65 53.87 83
44 10/28/2014 18:44:22 29.91, 107.54 10/28/2014 18:47:02 30.09, 106.69 84.42 160
45 10/31/2014 04:41:51 -29.97, -51.31 10/31/2014 04:35:00 -30.16, -50.45 85.71 411
46 10/31/2014 05:31:21 29.96, 116.32 10/31/2014 05:25:47 30.08, 116.87 55.22 334
47 10/31/2014 06:20:44 -29.97, -76.03 10/31/2014 06:16:27 -30.00, -75.78 24.65 257
48 10/31/2014 07:08:41 24.36, 93.00 10/31/2014 07:05:39 24.36, 93.01 1.08 182
49 10/31/2014 07:50:04 4.58, -92.96 10/31/2014 07:48:07 4.58, -92.95 0.97 117
50 10/31/2014 08:33:22 -27.05, 79.76 10/31/2014 08:32:33 -27.06, 79.70 5.64 49
51 10/31/2014 09:21:57 29.91,-111.85 10/31/2014 09:22:24 29.97,-112.18 32.40 27




NCC Satellite Simultaneous Nadir Overpasses (SNOs) Prediction Service
